Regional Weather Roundup
Issued by NWS

Home | Current Version | Previous Version | Text Only | Print | Product List | Glossary Off
Versions: 1 2 3 4 5 6 7 8 9 10 11 12 13 14 15 16 17 18 19 20 21 22 23 24 25 26 27 28 29 30 31 32 33 34 35 36 37 38 39 40 41 42 43 44 45 46 47 48 49 50

546
ASUS43 KLOT 250409
RWRIL

ILLINOIS REGIONAL WEATHER ROUNDUP
NATIONAL WEATHER SERVICE CHICAGO/ROMEOVILLE IL
1100 PM CDT WED MAY 24 2017

NOTE: "FAIR" INDICATES FEW OR NO CLOUDS BELOW 12,000 FEET WITH NO
SIGNIFICANT WEATHER AND/OR OBSTRUCTIONS TO VISIBILITY.

* THESE STATIONS ARE NOT UNDER NWS QUALITY CONTROL. THEY ALSO MAY NOT
  REPORT WEATHER SUCH AS PRECIPITATION OR FOG.

ILZ001-002-007-009-015-016-024-250500-
NORTHWEST ILLINOIS

CITY           SKY/WX    TMP DP  RH WIND       PRES   REMARKS
MOLINE         CLOUDY    58  50  75 N8        29.64R
STERLING*      CLOUDY    56  52  86 N9        29.63S
SAVANNA*       CLOUDY    56  51  82 N8        29.65R
$$

ILZ003-004-008-010-011-017-018-250500-
NORTH CENTRAL ILLINOIS

CITY           SKY/WX    TMP DP  RH WIND       PRES   REMARKS
ROCKFORD       CLOUDY    56  51  84 N10       29.62F
FREEPORT*      MOCLDY    53  50  90 N10       29.65S
ROCHELLE*      PTCLDY    54  52  94 N13       29.61S
DE KALB*       CLOUDY    56  53  91 N13       29.59F
PERU*          CLOUDY    55  51  86 NW14      29.60S
$$

ILZ005-006-012>014-019>023-250500-
NORTHEAST ILLINOIS

CITY           SKY/WX    TMP DP  RH WIND       PRES   REMARKS
CHICAGO-OHARE  CLOUDY    54  48  80 N10       29.56S
CHICAGO-MIDWAY CLOUDY    52  49  89 N15       29.55S
AURORA         CLOUDY    58  50  75 N12       29.57S
LANSING*       CLOUDY    51  51 100 N7        29.55S
JOLIET*        MOCLDY    55  53  92 N6        29.56S
WAUKEGAN       CLOUDY    53  50  89 N10G20    29.57F
DUPAGE AIRPORT CLOUDY    55  52  89 N12       29.56F
KANKAKEE*      CLOUDY    53  51  94 N7G16     29.54F
WHEELING       CLOUDY    53  51  93 N8        29.58F
MORRIS*        CLOUDY    57  51  80 N3        29.55S
ROMEOVILLE*    CLOUDY    55  53  95 NE9       29.56S
NORTHERLY ISL    N/A     51  48  89 NW13        N/A
$$

LMZ740>746-250500-
SOUTHERN LAKE MICHIGAN

STATION/POSITION SKY/WX   TEMP    WIND        PRES    VSBY  WAVE
                          AIR SEA DIR/SP/G                  HT/PER
                          (F)     (DEG/KT/KT) (MB)    (MI)  (FT/S)
SOUTHERN BUOY              46 45  350/ 14/ 17 1000.7F         4/ 6
WILMETTE HARBOR            48 53                N/A           6/ 6
HARRISON CRIB              49     340/ 27/ 30   N/A
BURNHAM HARBOR             52     340/ 10/ 19   N/A
CALUMET HARBOR             50     320/ 13/ 22 1000.3F
BURNS HARBOR               51     330/ 10/ 13 1000.3F
MICHIGAN CITY              52     340/ 15/ 16   N/A
MICHIGAN CITY 6N           51 53  350/ 14/ 17   N/A           5/ 6
ST. JOSEPH                 55 57   30/ 14/ 17  999.5          4/ 5
$$

ILZ025>027-034>036-040-047-049-050-058-095>099-250500-
WEST-CENTRAL ILLINOIS

CITY           SKY/WX    TMP DP  RH WIND       PRES   REMARKS
QUINCY         MOCLDY    55  53  93 NW6       29.64S
GALESBURG*     PTCLDY    54  51  89 NW5       29.63S
MACOMB*        PTCLDY    53  51  94 NW6       29.65S
JACKSONVILLE*  CLOUDY    57  53  89 NW9       29.61S
PITTSFIELD*    PTCLDY    56  54  91 NW3       29.64S
$$

ILZ028>032-037-038-041>044-048-051>054-059>061-250500-
CENTRAL ILLINOIS

CITY           SKY/WX    TMP DP  RH WIND       PRES   REMARKS
PONTIAC        CLOUDY    58  57  97 NW15G21   29.56S
BLOOMINGTON    CLOUDY    56  54  93 N16G25    29.56F
DECATUR        CLOUDY    58  54  86 NW16      29.55S
PEORIA         CLEAR     56  53  90 N6        29.60S
LACON*         CLOUDY    56  53  89 N7        29.59S
LINCOLN*       CLOUDY    59  56  88 NW5       29.58S
SPRINGFIELD    CLOUDY    59  54  83 N13       29.59S
TAYLORVILLE    CLOUDY    58  54  87 NW12      29.58R
$$

ILZ033-039-045-046-055>057-062-063-250500-
EAST-CENTRAL ILLINOIS

CITY           SKY/WX    TMP DP  RH WIND       PRES   REMARKS
CHAMPAIGN      CLOUDY    58  53  84 N15       29.52S
RANTOUL*       CLOUDY    58  56  93 N9        29.52F
MATTOON        CLOUDY    58  57  97 NW9       29.52S
PARIS*         CLOUDY    56  55  95 NW13      29.51S
$$

ILZ079-100>102-250500-
SOUTHWEST ILLINOIS

CITY           SKY/WX    TMP DP  RH WIND       PRES   REMARKS
ALTON          CLEAR     56  52  85 W5        29.61R
BELLEVILLE     CLOUDY    59  53  80 NW12      29.61R
CAHOKIA*       PTCLDY    60  49  66 NW13      29.61R
SPARTA*        CLEAR     57  49  74 NW5       29.61R
$$

ILZ064>066-069>071-074>076-080>082-084>086-088>090-092>094-250500-
SOUTH-CENTRAL ILLINOIS

CITY           SKY/WX    TMP DP  RH WIND       PRES   REMARKS
CARBONDALE     CLOUDY    60  51  72 NW8       29.59R
CAIRO*         CLEAR     59  51  72 W9        29.60R
EFFINGHAM*     CLOUDY    59  58  98 W8        29.55S
MARION         CLOUDY    59  55  88 CALM      29.59S
MT. VERNON       N/A     57  55  93 CALM      29.57R
CENTRALIA*     CLOUDY    60  57  88 NW3       29.57R
SALEM*         CLOUDY    60  56  87 NW7       29.57R
METROPOLIS*    MOCLDY    58  51  79 CALM      29.59R
$$

ILZ067-068-072-073-078-083-087-091-250500-
SOUTHEAST ILLINOIS

CITY           SKY/WX    TMP DP  RH WIND       PRES   REMARKS
LAWRENCEVILLE  CLOUDY    59  57  93 NW10      29.51S
FLORA*         LGT RAIN  60  57  92 NW9       29.55R
FAIRFIELD*     CLOUDY    57  56  97 CALM      29.54R
HARRISBURG*    CLOUDY    58  54  89 NW6       29.57S
ROBINSON*      DRIZZLE   58  56  94 NW7       29.51S
CARMI*         CLOUDY    57  55  95 W9        29.54S
$$

ABBREVIATIONS USED IN REMARKS
   TC - TEMPERATURE IN CELSIUS
  WCI - WIND CHILL INDEX
   HX - HEAT INDEX
  VSB - VISIBILITY
$$





USA.gov is the U.S. government's official web portal to all federal, state and local government web resources and services.